Rakoskert, Hungary

4:15 AM CEST on March 27, 2017 (GMT +0200)
Szigetcsep u. | | Change Station

Elev 669 ft 47.47 °N, 19.31 °E | Updated 29 seconds ago

Clear
Clear
33.1 °F
Feels Like 33 °F
N
0.0
Wind Variable Wind from North
Gusts 0.0 mph

Today
High -- | Low -- °F
--% Chance of Precip.
Yesterday
High -- | Low -- °F
Precip. -- in
Pressure 30.33 in
Visibility -9999.0 miles
Clouds
Windchill 33 °F
Dew Point 23 °F
Humidity 67%
Rainfall 0.00 in
Snow Depth Not available.
6:31 AM 7:05 PM
Waning Crescent, 1% visible
METAR LHBP 270200Z VRB03KT CAVOK 00/M04 Q1027 NOSIG
Pressure 30.33 in
Visibility -9999.0 miles
Clouds
Windchill 33 °F
Dew Point 23 °F
Humidity 67%
Rainfall 0.00 in
Snow Depth Not available.
6:31 AM 7:05 PM
Waning Crescent, 1% visible
METAR LHBP 270200Z VRB03KT CAVOK 00/M04 Q1027 NOSIG

Get Severe Weather Alerts

Thanks for signing up!

Be on the lookout for a verification email in your inbox.

You'll start receiving the daily forecast at 8 AM.

×

10-Day Weather Forecast

×

Almanac

Astronomy

Mar. 27, 2017 Rise Set
Actual Time
Civil Twilight
Nautical Twilight
Astronomical Twilight
Moon
Length of Visible Light
Length of Day
Tomorrow will be .
, % of the Moon is Illuminated

Today's Extremes

Country Highs Country Lows

Community

WunderPhotos

Upload Photos

1,962,540 photos uploaded!

WunderBlog® & News

Nearby

Air Quality

  Air Quality AQ Index Pollutant
Not available.

Snow Depth

Station Depth Elevation

Earthquake Activity

City Distance Mag. Time & Date
Minimum magnitude displayed is 2.5.

Earthquake Activity

City Distance Mag. Time & Date
Minimum magnitude displayed is 2.5.

Coastal Water Temperatures

Place Temperature

Stations

Nearby Weather Stations

Station Location Temp. Windchill Dew Point Humidity Wind Precip. Elev Updated Type